[Iaude] MPEC P12: 2020 PA [a=2.46,e=0.59,i=3.1,H=28.8]

mpec at marsden.cfa.harvard.edu mpec at marsden.cfa.harvard.edu
Sun Aug 2 19:20:22 EDT 2020


M.P.E.C. 2020-P12                                Issued 2020 August 2, 23:19 UT

     The Minor Planet Electronic Circulars contain information on unusual
         minor planets and routine data on comets.  They are published
    on behalf of Division F of the International Astronomical Union by the
          Minor Planet Center, Smithsonian Astrophysical Observatory,
                          Cambridge, MA 02138, U.S.A.

             Prepared using the Tamkin Foundation Computer Network

                              MPC at CFA.HARVARD.EDU
            URL https://www.minorplanetcenter.net/    ISSN 1523-6714

                                    2020 PA                                     


Observations:
     K20P00A* C2020 08 01.41341 00 02 05.26 +22 17 07.7          18.1 GVEP012703
     K20P00A  C2020 08 01.41736 00 02 38.73 +22 17 14.0                VEP012703
     K20P00A  C2020 08 01.42132 00 03 11.48 +22 17 19.1                VEP012703
     K20P00A  C2020 08 01.42527 00 03 43.51 +22 17 22.6                VEP012703
     K20P00A  C2020 08 01.44787 00 06 34.31 +22 17 16.1          17.3 GVEP012I52
     K20P00A  C2020 08 01.44869 00 06 40.10 +22 17 15.4          17.2 GVEP012I52
     K20P00A  C2020 08 01.44951 00 06 45.88 +22 17 14.2          17.4 GVEP012I52
     K20P00A  C2020 08 01.45033 00 06 51.57 +22 17 13.2          17.3 GVEP012I52
     K20P00A  C2020 08 01.47633 00 09 41.86 +22 16 15.9          17.0 GVEP012I52
     K20P00A  C2020 08 01.47714 00 09 46.86 +22 16 13.4          17.1 GVEP012I52
     K20P00A  C2020 08 01.47796 00 09 51.85 +22 16 11.0          17.0 GVEP012I52
     K20P00A  C2020 08 01.47877 00 09 56.80 +22 16 08.4          17.0 GVEP012I52
     K20P00A  C2020 08 01.47897 00 09 57.74 +22 16 09.8          17.4 GVEP012703
     K20P00A  C2020 08 01.47920 00 09 59.17 +22 16 08.8          17.4 GVEP012703
     K20P00A  C2020 08 01.47944 00 10 00.56 +22 16 08.0          17.3 GVEP012703
     K20P00A  C2020 08 01.85877 00 36 20.63 +21 55 17.7          19.0 GVEP012N88
     K20P00A  C2020 08 01.85922 00 36 21.20 +21 55 17.6          18.9 GVEP012N88
     K20P00A  C2020 08 01.85964 00 36 21.76 +21 55 18.0          19.0 GVEP012N88
     K20P00A  C2020 08 01.86006 00 36 22.32 +21 55 17.9          18.9 GVEP012N88
     K20P00A  C2020 08 01.86047 00 36 22.84 +21 55 18.5          18.9 GVEP012N88
     K20P00A hC2020 08 01.89166200 38 31.72 +21 45 37.7          19.2 GVEP012L01
     K20P00A hC2020 08 01.89480200 38 36.96 +21 45 47.7          19.2 GVEP012L01
     K20P00A hC2020 08 01.90293300 38 50.19 +21 46 13.4          19.3 GVEP012L01
     K20P00A KC2020 08 01.92071600 39 06.58 +21 44 41.1          18.5 GVEP012G34
     K20P00A KC2020 08 01.92827800 39 17.74 +21 45 00.9          18.5 GVEP012G34
     K20P00A KC2020 08 01.93432800 39 26.26 +21 45 16.3          19.2 GVEP012G34
     K20P00A hC2020 08 01.93674900 39 39.76 +21 47 50.5          19.3 GVEP012L01
     K20P00A hC2020 08 01.94289800 39 47.90 +21 48 06.0          19.1 GVEP012L01
     K20P00A KC2020 08 01.94290100 39 43.90 +21 43 18.2          19.0 GVEP012J95
     K20P00A hC2020 08 01.94437100 39 49.79 +21 48 09.7          19.2 GVEP012L01
     K20P00A KC2020 08 01.94765600 39 50.87 +21 43 30.8          18.6 GVEP012J95
     K20P00A KC2020 08 01.95548100 40 02.03 +21 43 51.0          18.7 GVEP012J95
     K20P00A KC2020 08 01.96129400 40 10.03 +21 44 06.7          19.4 GVEP012J95
     K20P00A 1C2020 08 02.38341 00 47 11.61 +21 45 07.7                LEP012658
     K20P00A 1C2020 08 02.38512 00 47 12.31 +21 45 09.9                LEP012658
     K20P00A 1C2020 08 02.38682 00 47 12.99 +21 45 11.4                LEP012658
     K20P00A 1C2020 08 02.38852 00 47 13.67 +21 45 13.5                LEP012658
     K20P00A  C2020 08 02.38872 00 47 11.63 +21 51 56.0                VEP012G96
     K20P00A  C2020 08 02.39004 00 47 12.00 +21 51 57.1          20.0 GVEP012G96
     K20P00A 1C2020 08 02.39021 00 47 14.33 +21 45 15.4                LEP012658
     K20P00A 1C2020 08 02.39191 00 47 15.00 +21 45 17.4                LEP012658

Observer details:
658 National Research Council of Canada.  Observer D. D. Balam.  Measurers D.
    D. Balam, D. W. E. Green.  1.82-m reflector + CCD.
703 Catalina Sky Survey.  Observer K. W. Wierzchos.  Measurers E. J.
    Christensen, G. A. Farneth, D. C. Fuls, A. R. Gibbs, A. D. Grauer, H.
    Groeller, R. A. Kowalski, S. M. Larson, G. J. Leonard, T. A. Pruyne, D.
    Rankin, R. L. Seaman, F. C. Shelly, K. W. Wierzchos.  0.68-m Schmidt + 10K
    CCD.
G34 Oberfrauendorf.  Observer T. Felber.  0.35-m f/6.3 Schmidt-Cassegrain +
    CCD.
G96 Mt. Lemmon Survey.  Observer T. A. Pruyne.  Measurers E. J. Christensen,
    G. A. Farneth, D. C. Fuls, A. R. Gibbs, A. D. Grauer, H. Groeller, R. A.
    Kowalski, S. M. Larson, G. J. Leonard, T. A. Pruyne, D. Rankin, R. L.
    Seaman, F. C. Shelly, K. W. Wierzchos.  1.5-m reflector + 10K CCD.
I52 Steward Observatory, Mt. Lemmon Station.  Observer R. A. Kowalski.
    Measurers E. J. Christensen, G. A. Farneth, D. C. Fuls, A. R. Gibbs, A. D.
    Grauer, H. Groeller, R. A. Kowalski, S. M. Larson, G. J. Leonard, T. A.
    Pruyne, D. Rankin, R. L. Seaman, F. C. Shelly, K. W. Wierzchos.  1.0-m
    reflector + CCD.
J95 Great Shefford.  Observer P. Birtwhistle.  0.41-m f/6.3 Schmidt-Cassegrain
    + CCD.
L01 Visnjan Observatory, Tican.  Observer K. Korlevic.  1.0-m f/2.9 reflector
    + CCD.
N88 Xingming Observatory #3, Nanshan.  Observer X. Gao.  Measurer Q.-Z. Ye.
    0.6-m f/8 Ritchey-Chretien + CCD.

Orbital elements:
2020 PA                                                  Earth MOID = 0.0001 AU
Epoch 2020 Aug. 1.0 TT = JDT 2459062.5                  Bell                    
M   1.75452              (2000.0)            P               Q                  
n   0.25505603     Peri.  351.78218     +0.50806920     +0.86031076             
a   2.4625156      Node   308.74257     -0.78717829     +0.44418860             
e   0.5893739      Incl.    3.05782     -0.34959410     +0.25012372             
P   3.86           H   28.84          G   0.15           U   7                  
Residuals in seconds of arc
200801 703  2.4+  0.5-    200801 703  1.1-  0.1-    200801 J95  0.7+  0.5+
200801 703  0.8+  1.0-    200801 N88  0.0+  1.1+    200801 L01  0.3-  1.0+
200801 703  1.1-  1.2-    200801 N88  0.2-  0.8+    200801 J95  0.5+  0.4+
200801 703  1.5-  1.4-    200801 N88  0.0-  1.1+    200801 J95  0.4+  0.1+
200801 I52  1.0+  0.2-    200801 N88  0.2+  0.8+    200801 J95  0.0+  1.0+
200801 I52  0.9+  0.0+    200801 N88  0.0+  1.3+    200802 658  0.6+  0.7-
200801 I52  1.0+  0.2-    200801 L01  1.7+  0.1+    200802 658  0.4+  0.4-
200801 I52  0.3+  0.1-    200801 L01  1.4+  0.1+    200802 658  0.0+  0.7-
200801 I52  1.0-  0.1-    200801 L01  1.1+  0.5+    200802 658  0.2-  0.5-
200801 I52  0.6-  0.1-    200801 G34  0.8-  1.0+    200802 G96 (1.2-  2.7+)
200801 I52  0.9-  0.0-    200801 G34  0.3+  1.1+    200802 G96 (0.7-  2.9+)
200801 I52  0.7-  0.1-    200801 G34  0.6-  1.2+    200802 658  0.6-  0.3-
200801 703  0.7-  0.2+    200801 L01  0.0+  1.3+    200802 658  0.7-  0.1-
200801 703  0.2-  0.1-    200801 L01  0.0-  1.0+

Ephemeris:
2020 PA                  a,e,i = 2.46, 0.59, 3                   q = 1.0112
Date    TT    R. A. (2000) Decl.     Delta      r    Elong.  Phase     V
2020 07 03    12 54 01.6 -21 40 36   0.1255  1.0445    99.4    73.8    27.0
...
2020 07 18    12 54 40.3 -21 38 37   0.06266 1.0135    85.7    90.8    26.1
...
2020 07 26    12 57 41.1 -21 38 24   0.02736 1.0108    78.9    99.6    24.7
...
2020 08 01    16 24 31.1 -08 36 07   0.0005471.0152   116.1    63.9    14.8
2020 08 02    01 15 36.7 +21 08 51   0.0042491.0159   104.1    75.7    19.7
2020 08 03    01 28 52.0 +20 40 40   0.0087511.0166   102.4    77.1    21.3
...
2020 08 09    01 38 01.8 +20 16 58   0.03560 1.0244   106.3    71.8    24.2
...
2020 08 17    01 37 48.5 +20 02 41   0.07089 1.0433   114.0    62.5    25.4
...
2020 09 01    01 29 55.2 +18 59 52   0.1362  1.1022   130.3    44.3    26.4

M. P. C. Staff               (C) Copyright 2020 MPC           M.P.E.C. 2020-P12




More information about the Iaude mailing list